This is the latest recevied weather packets stored in our database for station/object N9NDF. If no packets are shown the sender has not sent any weather packets the latest 10 day(s).
| Time | Temp. | Humidity | Pressure | Rain* | Wind** | Luminosity | Snow |
|---|---|---|---|---|---|---|---|
| 1777489629 | 16.67° C | 42% | 993.9 hPa | 0 mm | - | 524 W/m² | - |
| 1777489564 | 16.67° C | 44% | 993.8 hPa | 0 mm | - | 279 W/m² | - |
| 1777489504 | 16.67° C | 47% | 994 hPa | 0 mm | - | 751 W/m² | - |
| 1777489443 | 16.67° C | 46% | 993.9 hPa | 0 mm | - | 545 W/m² | - |
| 1777489381 | 16.67° C | 45% | 994 hPa | 0 mm | - | 912 W/m² | - |
| 1777489321 | 16.67° C | 43% | 994 hPa | 0 mm | - | 300 W/m² | - |
| 1777489267 | 16.67° C | 43% | 993.9 hPa | 0 mm | - | 511 W/m² | - |
| 1777489200 | 16.67° C | 42% | 993.8 hPa | 0 mm | - | 545 W/m² | - |
| 1777489141 | 16.67° C | 41% | 993.9 hPa | 0 mm | - | 1128 W/m² | - |
| 1777489080 | 16.67° C | 43% | 993.9 hPa | 0 mm | - | 1112 W/m² | - |
| 1777489021 | 16.11° C | 43% | 994 hPa | 0 mm | - | 1117 W/m² | - |
| 1777488960 | 16.11° C | 43% | 994 hPa | 0 mm | - | 1109 W/m² | - |
| 1777488900 | 16.11° C | 43% | 993.9 hPa | 0 mm | - | 1115 W/m² | - |
| 1777488840 | 16.11° C | 45% | 994.1 hPa | 0 mm | - | 1138 W/m² | - |
| 1777488780 | 16.11° C | 47% | 994 hPa | 0 mm | - | 833 W/m² | - |
| 1777488720 | 16.11° C | 46% | 994 hPa | 0 mm | - | 474 W/m² | - |
| 1777488660 | 16.11° C | 45% | 994.1 hPa | 0 mm | - | 299 W/m² | - |
| 1777488600 | 16.67° C | 45% | 994 hPa | 0 mm | - | 409 W/m² | - |
| 1777488540 | 16.67° C | 46% | 993.9 hPa | 0 mm | - | 749 W/m² | - |
| 1777488480 | 16.67° C | 43% | 994.1 hPa | 0 mm | - | 672 W/m² | - |
| 1777488420 | 17.22° C | 44% | 994.1 hPa | 0 mm | - | 217 W/m² | - |
| 1777488360 | 17.22° C | 42% | 993.9 hPa | 0 mm | - | 244 W/m² | - |
| 1777488300 | 17.22° C | 44% | 994 hPa | 0 mm | - | 911 W/m² | - |
| 1777488240 | 17.22° C | 43% | 994 hPa | 0 mm | - | 945 W/m² | - |
| 1777488180 | 17.22° C | 43% | 994 hPa | 0 mm | - | 1058 W/m² | - |
* Rain latest hour (hover to see other rain measurements)
** Current wind speed in m/s (hover to see current wind gust speed)